QPF
0.00 0.00 0.00 0.00 0.00 0.00 0.00 0.00 0.00 0.00 0.00 0.00 0.00 0.00 0.00 0.00 0.00 0.00 0.00 0.00 0.00 0.00 0.00 0.00 0.00 0.00 0.00 0.00 0.00 0.00 0.00 0.00 0.00 0.00 0.00 0.00 0.00 0.00 0.00 0.00 0.00 0.00 0.00 0.00
0.00 0.00 0.00 0.00 0.00 0.00 0.00 0.00 0.00 0.00 0.00 0.00 0.00 0.00 0.00 0.00 0.00 0.00 0.00 0.00 0.00 0.00 0.00 0.00 0.00 0.00 0.00 0.00 0.00 0.00 0.00 0.00 0.00 0.00 0.00 0.00 0.00 0.00 0.00 0.00 0.00 0.00 0.00 0.00
0.00 0.00 0.00 0.00 0.00 0.00 0.00 0.00 0.00 0.00 0.00 0.00 0.00 0.00 0.00 0.00 0.00 0.00 0.00 0.00 0.00 0.00 0.00 0.00 0.00 0.00 0.00 0.00 0.00 0.00 0.00 0.00 0.00 0.00 0.00 0.00 0.00 0.00 0.00 0.00 0.00 0.00 0.00 0.00
0.00 0.00 0.00 0.00 0.00 0.00 0.00 0.00 0.00 0.00 0.00 0.00 0.00 0.00 0.00 0.00 0.00 0.00 0.00 0.00 0.00 0.00 0.00 0.00 0.00 0.00 0.00 0.00 0.00 0.00 0.00 0.00 0.00 0.00 0.00 0.00 0.00 0.00 0.00 0.00 0.00 0.00 0.00 0.00
0.00 0.00 0.00 0.00 0.00 0.00 0.00 0.00 0.00 0.00 0.00 0.00 0.00 0.00 0.00 0.00 0.00 0.00 0.00 0.00 0.00 0.00 0.00 0.00 0.00 0.00 0.00 0.00 0.00 0.00 0.00 0.00 0.00 0.00 0.00 0.00 0.00 0.00 0.00 0.00 0.00 0.00 0.00 0.00
0.00 0.00 0.00 0.00 0.00 0.00 0.00 0.00 0.00 0.00 0.00 0.00 0.00 0.00 0.00 0.00 0.00 0.00 0.00 0.00 0.00 0.00 0.00 0.00 0.00 0.00 0.00 0.00 0.00 0.00 0.00 0.00 0.00 0.00 0.00 0.00 0.00 0.00 0.00 0.00 0.00 0.00 0.00 0.00
0.00 0.00 0.00 0.00 0.00 0.00 0.00 0.00 0.00 0.00 0.00 0.00 0.00 0.00 0.00 0.00 0.00 0.00 0.00 0.00 0.00 0.00 0.00 0.00 0.00 0.00 0.00 0.00 0.00 0.00 0.00 0.00 0.00 0.00 0.00 0.00 0.00 0.00 0.00 0.00 0.00 0.00 0.00 0.00
0.00 0.00 0.00 0.00 0.00 0.00 0.00 0.00 0.00 0.00 0.00 0.00 0.00 0.00 0.00 0.00 0.00 0.00 0.00 0.00 0.00 0.00 0.00 0.00 0.00 0.00 0.00 0.00 0.00 0.00 0.00 0.00 0.00 0.00 0.00 0.00 0.00 0.00 0.00 0.00 0.00 0.00 0.00 0.00
0.00 0.00 0.00 0.00 0.00 0.00 0.00 0.00 0.00 0.00 0.00 0.00 0.00 0.00 0.00 0.00 0.00 0.00 0.00 0.00 0.00 0.00 0.00 0.00 0.00 0.00 0.00 0.00 0.00 0.00 0.00 0.00 0.00 0.00 0.00 0.00 0.00 0.00 0.00 0.00 0.00 0.00 0.00 0.00
0.00 0.00 0.00 0.00 0.00 0.00 0.00 0.00 0.00 0.00 0.00 0.00 0.00 0.00 0.00 0.00 0.00 0.00 0.00 0.00 0.00 0.00 0.00 0.00 0.00 0.00 0.00 0.00 0.00 0.00 0.00 0.00 0.00 0.00 0.00 0.00 0.00 0.00 0.00 0.00 0.00 0.00 0.00 0.00
0.00 0.00 0.00 0.00 0.00 0.00 0.00 0.00 0.00 0.00 0.00 0.00 0.00 0.00 0.00 0.00 0.00 0.00 0.00 0.00 0.00 0.00 0.00 0.00 0.00 0.00 0.00 0.00 0.00 0.00 0.00 0.00 0.00 0.00 0.00 0.00 0.00 0.00 0.00 0.00 0.00 0.00 0.00 0.00
0.00 0.00 0.00 0.00 0.00 0.00 0.00 0.00 0.00 0.00 0.00 0.00 0.00 0.00 0.00 0.00 0.00 0.00 0.00 0.00 0.00 0.00 0.00 0.00 0.00 0.00 0.00 0.00 0.00 0.00 0.00 0.00 0.00 0.00 0.00 0.00 0.00 0.00 0.00 0.00 0.00 0.00 0.00 0.00
0.00 0.00 0.00 0.00 0.00 0.00 0.00 0.00 0.00 0.00 0.00 0.00 0.00 0.00 0.00 0.00 0.00 0.00 0.00 0.00 0.00 0.00 0.00 0.00 0.01 0.01 0.00 0.00 0.00 0.00 0.00 0.00 0.00 0.01 0.00 0.00 0.02 0.03 0.03 0.02 0.00 0.00 0.00 0.00
0.00 0.00 0.00 0.00 0.00 0.00 0.00 0.00 0.00 0.00 0.00 0.00 0.00 0.00 0.00 0.00 0.00 0.00 0.00 0.00 0.00 0.00 0.00 0.04 0.07 0.04 0.00 0.00 0.00 0.00 0.00 0.00 0.00 0.00 0.00 0.01 0.01 0.00 0.00 0.00 0.00 0.00 0.00 0.00
0.00 0.00 0.00 0.00 0.00 0.00 0.00 0.00 0.00 0.00 0.00 0.00 0.00 0.00 0.00 0.00 0.00 0.00 0.00 0.00 0.00 0.00 0.01 0.04 0.04 0.02 0.01 0.01 0.00 0.00 0.00 0.00 0.00 0.01 0.01 0.01 0.00 0.00 0.00 0.00 0.00 0.00 0.00 0.00
0.00 0.00 0.00 0.00 0.00 0.00 0.00 0.00 0.01 0.00 0.00 0.00 0.00 0.00 0.00 0.00 0.00 0.00 0.00 0.00 0.00 0.01 0.02 0.02 0.03 0.03 0.04 0.05 0.03 0.00 0.00 0.00 0.00 0.00 0.00 0.00 0.00 0.00 0.00 0.00 0.00 0.00 0.00 0.00
0.00 0.00 0.00 0.00 0.00 0.00 0.00 0.00 0.01 0.00 0.00 0.00 0.00 0.00 0.00 0.00 0.00 0.00 0.00 0.00 0.00 0.01 0.02 0.02 0.01 0.00 0.04 0.05 0.01 0.00 0.00 0.00 0.00 0.00 0.00 0.00 0.00 0.00 0.00 0.00 0.00 0.00 0.00 0.00
0.00 0.00 0.00 0.00 0.00 0.00 0.00 0.01 0.00 0.00 0.00 0.00 0.00 0.00 0.00 0.00 0.00 0.00 0.00 0.00 0.00 0.01 0.02 0.02 0.02 0.01 0.03 0.07 0.02 0.00 0.00 0.00 0.00 0.00 0.00 0.00 0.00 0.00 0.00 0.00 0.00 0.00 0.00 0.00
0.00 0.00 0.00 0.00 0.00 0.00 0.00 0.01 0.00 0.00 0.00 0.00 0.01 0.00 0.00 0.00 0.00 0.00 0.00 0.00 0.00 0.00 0.00 0.00 0.01 0.00 0.02 0.01 0.00 0.00 0.00 0.00 0.00 0.00 0.00 0.00 0.00 0.00 0.00 0.00 0.00 0.00 0.00 0.00
0.00 0.00 0.00 0.00 0.00 0.00 0.00 0.00 0.00 0.00 0.01 0.02 0.02 0.02 0.00 0.00 0.00 0.00 0.00 0.01 0.01 0.00 0.00 0.00 0.03 0.03 0.02 0.01 0.00 0.01 0.00 0.00 0.00 0.00 0.00 0.00 0.00 0.00 0.00 0.00 0.00 0.00 0.00 0.00
0.00 0.00 0.00 0.00 0.00 0.00 0.00 0.00 0.01 0.03 0.06 0.06 0.04 0.01 0.01 0.00 0.03 0.02 0.03 0.03 0.02 0.00 0.00 0.00 0.00 0.02 0.02 0.00 0.00 0.00 0.00 0.00 0.00 0.00 0.00 0.00 0.00 0.00 0.00 0.00 0.00 0.00 0.00 0.00
0.00 0.00 0.00 0.00 0.00 0.00 0.00 0.00 0.02 0.05 0.06 0.02 0.00 0.00 0.00 0.00 0.00 0.00 0.00 0.00 0.00 0.00 0.00 0.00 0.01 0.06 0.03 0.00 0.00 0.00 0.00 0.00 0.00 0.00 0.00 0.00 0.00 0.00 0.00 0.00 0.00 0.00 0.00 0.00
0.00 0.00 0.00 0.00 0.00 0.00 0.00 0.00 0.01 0.01 0.00 0.00 0.00 0.00 0.00 0.00 0.00 0.00 0.00 0.00 0.00 0.00 0.00 0.01 0.02 0.01 0.00 0.00 0.00 0.00 0.00 0.00 0.00 0.00 0.00 0.00 0.00 0.00 0.00 0.00 0.00 0.00 0.00 0.00
0.00 0.00 0.00 0.00 0.00 0.02 0.03 0.00 0.00 0.00 0.00 0.00 0.00 0.00 0.00 0.00 0.00 0.00 0.00 0.00 0.00 0.00 0.00 0.02 0.01 0.00 0.00 0.00 0.00 0.00 0.00 0.00 0.00 0.00 0.00 0.00 0.00 0.00 0.00 0.00 0.00 0.00 0.00 0.00
0.00 0.00 0.00 0.00 0.00 0.00 0.00 0.00 0.00 0.00 0.00 0.00 0.00 0.00 0.00 0.00 0.00 0.00 0.00 0.00 0.00 0.01 0.02 0.01 0.00 0.00 0.00 0.00 0.00 0.00 0.00 0.00 0.00 0.00 0.00 0.00 0.00 0.00 0.00 0.00 0.00 0.00 0.00 0.00
0.00 0.00 0.00 0.00 0.00 0.00 0.00 0.00 0.00 0.00 0.00 0.00 0.00 0.00 0.00 0.00 0.00 0.00 0.00 0.00 0.00 0.00 0.00 0.00 0.00 0.00 0.00 0.00 0.00 0.00 0.00 0.00 0.00 0.00 0.00 0.00 0.00 0.00 0.00 0.00 0.00 0.00 0.00 0.00
0.00 0.00 0.00 0.00 0.00 0.00 0.00 0.00 0.00 0.00 0.00 0.00 0.00 0.00 0.00 0.00 0.00 0.00 0.00 0.00 0.00 0.00 0.00 0.00 0.00 0.00 0.00 0.00 0.00 0.00 0.00 0.00 0.00 0.00 0.00 0.00 0.00 0.00 0.00 0.00 0.00 0.00 0.00 0.00
MSLP
1020.17 1019.48 1018.78 1018.10 1017.22 1016.34 1016.30 1016.92 1017.34 1016.75 1016.88 1017.54 1019.22 1019.70 1019.19 1018.79 1018.70 1018.56 1018.35 1018.14 1017.95 1018.03 1018.19 1018.44 1018.71 1019.07 1019.31 1019.41 1019.66 1020.12 1020.60 1021.73 1022.92 1022.71 1022.65 1022.94 1023.40 1023.76 1024.37 1025.71 1026.59 1026.47 1025.20 1020.10
1020.30 1019.45 1018.63 1017.94 1017.36 1016.83 1016.99 1017.42 1017.47 1016.94 1016.87 1018.30 1019.69 1019.49 1019.12 1018.80 1018.69 1018.58 1018.40 1018.17 1017.96 1017.88 1018.00 1018.39 1018.69 1019.18 1019.48 1019.68 1020.07 1020.50 1020.91 1021.81 1022.44 1022.51 1022.82 1022.67 1022.77 1022.89 1023.38 1024.29 1025.03 1025.31 1024.32 1019.53
1020.72 1019.86 1018.85 1017.88 1017.08 1016.49 1016.65 1017.72 1018.12 1017.72 1017.92 1018.66 1018.72 1018.87 1018.77 1018.72 1018.60 1018.48 1018.43 1018.43 1018.19 1018.20 1018.23 1018.32 1018.73 1019.28 1019.83 1020.14 1020.47 1020.68 1020.99 1021.73 1021.99 1021.72 1021.50 1021.61 1022.19 1022.19 1022.53 1023.03 1023.97 1023.05 1021.23 1018.28
1020.83 1020.28 1019.38 1018.26 1017.18 1016.40 1016.76 1018.25 1019.67 1019.62 1019.25 1018.90 1018.62 1018.40 1018.31 1018.37 1018.39 1018.53 1018.47 1018.49 1018.41 1018.44 1018.64 1018.71 1019.00 1019.41 1020.09 1020.58 1020.87 1021.20 1021.55 1021.95 1021.66 1020.96 1020.90 1020.96 1020.92 1020.94 1021.22 1021.80 1021.19 1021.34 1018.81 1018.74
1021.27 1020.63 1019.97 1019.10 1017.81 1016.86 1017.64 1019.51 1019.97 1019.69 1019.52 1019.22 1018.73 1018.38 1018.12 1017.91 1017.92 1018.23 1018.60 1018.81 1018.52 1018.55 1018.65 1018.39 1018.72 1019.39 1020.26 1020.42 1021.43 1021.83 1022.15 1022.11 1021.92 1021.22 1020.35 1020.25 1020.08 1019.21 1019.04 1019.21 1019.20 1018.90 1018.34 1017.59
1021.64 1021.08 1020.49 1019.85 1019.04 1017.91 1019.29 1020.28 1020.04 1019.85 1019.89 1019.30 1019.05 1018.61 1018.10 1017.77 1017.72 1017.92 1017.93 1018.36 1018.60 1018.74 1018.39 1018.40 1018.51 1018.82 1019.24 1019.65 1020.59 1021.68 1022.24 1022.33 1022.40 1021.60 1020.62 1020.00 1019.26 1017.30 1016.65 1017.36 1017.35 1017.39 1017.60 1016.84
1022.21 1021.66 1021.12 1020.59 1020.10 1019.94 1020.51 1021.00 1020.95 1020.60 1020.24 1019.69 1019.02 1018.36 1018.09 1018.07 1018.02 1018.10 1018.10 1018.40 1018.65 1018.48 1018.35 1018.52 1018.70 1018.98 1019.16 1019.61 1019.88 1020.11 1021.43 1022.19 1022.25 1021.79 1021.08 1019.52 1016.36 1015.47 1015.65 1016.06 1016.62 1016.59 1016.92 1016.87
1022.65 1022.31 1021.84 1021.20 1020.65 1020.32 1020.57 1020.92 1021.11 1021.17 1020.81 1020.14 1019.19 1018.77 1018.56 1018.30 1018.17 1018.43 1018.46 1018.36 1018.40 1018.47 1018.72 1019.29 1019.42 1019.42 1019.40 1019.10 1019.62 1020.11 1020.47 1021.23 1021.90 1021.71 1020.88 1018.24 1016.07 1015.18 1015.30 1015.60 1017.01 1017.09 1017.26 1017.51
1022.84 1022.58 1022.30 1021.92 1021.45 1020.74 1020.41 1020.72 1020.79 1021.28 1021.28 1019.99 1019.33 1019.14 1018.83 1018.80 1018.82 1018.93 1018.51 1018.70 1018.75 1018.92 1019.42 1019.99 1020.06 1019.90 1019.18 1019.26 1019.69 1019.93 1020.48 1020.67 1021.11 1021.71 1020.67 1018.43 1016.03 1015.25 1015.17 1015.39 1017.35 1017.96 1018.13 1018.40
1023.17 1022.83 1022.45 1022.03 1021.87 1021.58 1021.16 1020.61 1020.46 1020.75 1021.04 1020.12 1019.60 1019.28 1018.97 1019.02 1019.09 1019.08 1018.96 1019.00 1019.22 1019.37 1019.98 1020.49 1020.39 1019.78 1018.94 1018.86 1019.08 1019.95 1020.46 1020.86 1020.53 1020.52 1019.86 1018.00 1016.34 1016.19 1015.92 1017.25 1018.90 1018.91 1019.11 1019.25
1023.35 1023.13 1022.74 1022.28 1021.95 1021.77 1021.72 1021.21 1020.77 1020.69 1020.65 1019.74 1019.02 1018.84 1018.93 1018.97 1019.07 1019.20 1019.33 1019.57 1019.50 1019.82 1020.32 1020.41 1019.97 1019.52 1018.44 1018.23 1018.16 1018.53 1018.93 1019.64 1019.93 1019.94 1019.81 1018.59 1016.99 1017.04 1017.94 1019.14 1019.07 1019.63 1019.80 1019.83
1023.63 1023.16 1023.11 1022.68 1022.24 1021.89 1021.66 1021.69 1021.21 1020.90 1020.72 1019.73 1019.02 1018.62 1018.36 1018.54 1018.65 1019.16 1019.20 1019.26 1019.26 1019.15 1019.66 1019.94 1019.74 1019.41 1018.79 1018.55 1018.42 1018.05 1018.15 1017.56 1018.00 1018.38 1018.21 1018.22 1018.51 1018.83 1019.57 1019.97 1020.09 1020.27 1020.38 1020.35
1023.93 1023.45 1023.06 1022.90 1022.51 1022.16 1022.15 1022.13 1021.88 1021.46 1020.87 1019.80 1019.34 1018.65 1018.30 1018.25 1018.21 1018.16 1018.98 1019.04 1018.88 1018.89 1018.92 1019.64 1019.68 1019.55 1019.22 1018.90 1018.26 1017.85 1017.33 1017.23 1017.97 1018.40 1018.34 1019.04 1019.46 1020.08 1020.46 1020.66 1020.67 1020.62 1020.67 1020.75
1023.91 1023.64 1023.27 1022.95 1022.72 1022.47 1022.20 1022.46 1022.07 1022.08 1021.82 1020.53 1019.10 1018.55 1018.58 1018.39 1018.25 1018.18 1018.07 1018.34 1018.71 1018.90 1019.01 1019.40 1019.37 1019.22 1018.83 1018.67 1018.28 1018.16 1017.98 1017.95 1018.13 1018.05 1018.37 1019.41 1020.07 1020.44 1020.65 1020.77 1021.09 1021.21 1021.10 1020.82
1023.90 1023.72 1023.34 1023.07 1022.75 1022.49 1022.38 1022.08 1022.05 1021.86 1021.97 1021.31 1020.18 1019.11 1018.62 1018.26 1018.12 1018.21 1018.16 1018.36 1018.68 1019.01 1019.17 1019.11 1018.99 1018.95 1019.09 1018.61 1018.69 1018.34 1018.36 1018.39 1018.73 1018.79 1019.56 1020.05 1020.48 1020.92 1020.73 1020.90 1021.15 1021.37 1021.51 1021.19
1023.78 1023.54 1023.23 1022.97 1022.78 1022.57 1022.59 1022.21 1022.14 1021.89 1021.80 1021.76 1020.85 1019.83 1019.19 1018.78 1018.53 1018.44 1018.44 1018.49 1018.66 1018.81 1018.89 1018.96 1018.73 1018.66 1018.98 1018.74 1018.49 1018.66 1018.84 1019.08 1019.37 1019.92 1020.37 1020.78 1021.20 1021.09 1021.06 1021.44 1021.60 1021.59 1021.43 1021.31
1023.60 1023.30 1022.99 1022.72 1022.47 1022.60 1022.78 1022.35 1022.06 1021.85 1021.99 1021.97 1021.34 1020.19 1019.39 1019.35 1018.98 1018.94 1019.05 1018.99 1018.95 1018.99 1019.13 1018.99 1018.79 1018.69 1018.80 1018.82 1019.12 1019.39 1019.70 1019.91 1020.19 1020.53 1020.83 1021.30 1021.61 1021.75 1021.64 1021.65 1021.40 1021.32 1021.17 1020.92
1023.27 1022.96 1022.58 1022.29 1021.86 1021.87 1022.19 1021.98 1021.85 1021.88 1022.14 1022.09 1021.93 1021.09 1020.37 1019.87 1019.68 1019.61 1019.46 1019.52 1019.46 1019.36 1019.12 1019.00 1018.69 1018.65 1018.77 1019.14 1019.86 1020.04 1020.32 1020.65 1021.00 1021.30 1021.45 1021.76 1021.82 1021.61 1021.42 1021.25 1021.18 1021.08 1020.80 1020.41
1023.03 1022.49 1022.07 1022.17 1022.04 1022.15 1022.04 1021.88 1021.90 1022.07 1022.58 1022.14 1022.01 1021.75 1021.22 1020.57 1020.41 1020.26 1020.17 1020.09 1020.25 1020.03 1019.86 1019.58 1019.48 1019.34 1019.85 1020.31 1020.55 1020.85 1021.30 1021.51 1021.66 1021.63 1021.64 1021.66 1021.76 1021.55 1021.31 1021.08 1020.79 1020.70 1020.28 1019.98
1022.65 1022.54 1022.59 1022.52 1022.37 1022.12 1022.02 1021.81 1022.16 1022.49 1022.52 1022.31 1022.32 1022.02 1021.82 1021.74 1021.34 1021.10 1021.32 1021.11 1021.18 1021.01 1020.68 1020.30 1020.18 1020.68 1021.35 1021.36 1021.59 1021.69 1021.77 1021.78 1021.80 1021.89 1021.64 1021.48 1021.52 1021.50 1021.20 1020.85 1020.59 1020.36 1019.87 1019.40
1023.23 1023.39 1023.34 1023.03 1022.36 1022.36 1022.60 1022.92 1022.80 1022.65 1022.68 1022.74 1022.89 1022.68 1022.43 1022.24 1022.24 1022.08 1021.99 1022.29 1022.36 1022.20 1021.78 1021.62 1021.65 1022.04 1022.25 1022.02 1021.93 1021.90 1021.87 1021.75 1021.69 1021.77 1021.65 1021.55 1021.50 1021.25 1020.97 1020.38 1020.00 1019.66 1019.22 1018.88
1023.64 1023.97 1023.78 1023.55 1023.88 1024.05 1024.30 1023.89 1023.81 1023.37 1023.69 1023.88 1023.77 1023.17 1022.75 1022.64 1022.74 1023.04 1023.28 1023.62 1023.60 1023.52 1023.10 1022.82 1022.96 1023.49 1023.16 1022.80 1022.31 1021.98 1021.73 1021.60 1021.51 1021.46 1021.51 1021.21 1020.97 1020.76 1020.46 1019.97 1019.50 1019.17 1018.73 1018.27
1023.89 1024.52 1024.89 1025.69 1026.27 1026.11 1025.58 1025.34 1025.23 1024.82 1024.35 1024.44 1024.54 1024.31 1024.09 1023.45 1023.59 1024.02 1024.48 1024.83 1025.07 1024.49 1024.61 1024.48 1024.17 1023.97 1023.37 1022.62 1022.17 1022.06 1021.81 1021.72 1021.51 1021.27 1021.03 1020.72 1020.45 1020.11 1019.85 1019.39 1019.11 1018.69 1018.18 1017.73
1025.05 1026.14 1027.07 1027.64 1027.07 1026.62 1026.08 1025.90 1025.57 1025.28 1025.00 1025.14 1025.34 1025.48 1025.34 1025.09 1025.36 1025.40 1025.95 1026.23 1026.19 1025.96 1025.89 1025.14 1024.55 1023.49 1022.80 1022.48 1022.22 1022.15 1022.03 1021.73 1021.46 1021.15 1020.77 1020.46 1020.12 1019.64 1019.24 1018.94 1018.43 1018.09 1017.59 1017.02
1026.16 1026.93 1027.93 1028.00 1027.08 1026.64 1026.43 1025.99 1025.79 1025.61 1025.57 1025.85 1026.08 1026.41 1026.82 1026.74 1026.63 1026.76 1027.02 1027.24 1027.33 1026.70 1025.79 1025.14 1024.35 1023.64 1023.23 1022.90 1022.59 1022.33 1022.03 1021.75 1021.52 1021.08 1020.72 1020.21 1019.73 1019.24 1018.57 1018.26 1017.89 1017.51 1017.00 1016.53
1026.45 1027.00 1027.72 1027.44 1027.52 1027.28 1026.92 1026.48 1026.26 1025.82 1025.91 1026.23 1026.83 1027.78 1028.27 1028.38 1028.17 1028.32 1028.17 1028.16 1027.56 1026.77 1025.93 1025.04 1024.28 1023.76 1023.39 1023.05 1022.62 1022.34 1022.05 1021.70 1021.31 1020.90 1020.40 1019.84 1019.39 1018.90 1018.26 1017.72 1017.42 1016.91 1016.50 1016.05
1026.67 1027.04 1026.87 1026.98 1027.04 1027.20 1026.81 1026.60 1026.33 1025.92 1026.26 1027.23 1027.64 1028.51 1028.87 1028.73 1028.60 1028.53 1028.14 1027.44 1026.69 1025.99 1025.17 1024.44 1024.05 1023.69 1023.34 1022.99 1022.74 1022.34 1021.92 1021.52 1021.11 1020.65 1020.19 1019.71 1019.14 1018.66 1018.13 1017.51 1016.90 1016.35 1015.82 1015.28
Thickness
5595 5601 5605 5610 5616 5623 5622 5614 5613 5617 5614 5600 5562 5579 5596 5594 5592 5590 5591 5592 5595 5594 5588 5589 5582 5591 5585 5586 5586 5589 5586 5556 5543 5575 5569 5561 5557 5562 5552 5529 5541 5496 5493 5567
5588 5596 5602 5607 5611 5616 5614 5611 5610 5613 5612 5585 5575 5586 5593 5593 5593 5593 5593 5595 5595 5596 5596 5596 5593 5588 5586 5586 5584 5581 5578 5563 5531 5567 5564 5557 5563 5558 5557 5543 5523 5504 5508 5564
5578 5585 5595 5603 5609 5614 5613 5606 5599 5601 5595 5585 5593 5595 5594 5592 5588 5590 5591 5590 5592 5592 5592 5592 5590 5587 5579 5578 5578 5578 5573 5561 5569 5572 5582 5556 5552 5551 5548 5548 5496 5522 5529 5572
5569 5575 5583 5592 5601 5608 5606 5589 5585 5581 5582 5590 5594 5594 5593 5590 5590 5583 5585 5585 5585 5586 5585 5584 5582 5580 5571 5566 5569 5563 5556 5555 5554 5560 5562 5563 5567 5569 5547 5530 5559 5542 5587 5541
5555 5562 5568 5576 5588 5596 5586 5581 5578 5571 5572 5579 5589 5584 5588 5588 5588 5582 5579 5578 5582 5572 5577 5579 5576 5572 5563 5569 5550 5545 5536 5545 5544 5554 5561 5546 5547 5560 5565 5560 5565 5552 5562 5557
5541 5546 5552 5558 5566 5577 5562 5556 5560 5564 5565 5571 5572 5572 5580 5583 5583 5579 5579 5573 5573 5569 5567 5571 5572 5568 5568 5565 5549 5532 5523 5521 5520 5516 5549 5550 5534 5563 5575 5552 5551 5556 5545 5556
5520 5528 5535 5541 5545 5548 5543 5539 5540 5550 5559 5555 5562 5572 5573 5570 5570 5570 5572 5566 5563 5566 5565 5561 5558 5550 5546 5544 5546 5545 5519 5515 5509 5496 5530 5510 5569 5572 5566 5561 5555 5549 5544 5543
5503 5507 5513 5522 5529 5531 5531 5528 5527 5526 5531 5535 5550 5554 5554 5557 5557 5555 5555 5556 5552 5548 5552 5537 5536 5536 5543 5545 5530 5525 5525 5515 5512 5497 5479 5522 5558 5556 5546 5545 5532 5531 5524 5522
5485 5490 5493 5498 5504 5513 5518 5516 5516 5510 5510 5525 5536 5534 5540 5531 5529 5532 5542 5535 5532 5534 5523 5523 5519 5520 5534 5533 5520 5511 5508 5508 5506 5475 5484 5502 5541 5544 5541 5535 5501 5501 5496 5486
5465 5471 5476 5481 5484 5489 5495 5502 5505 5501 5497 5504 5515 5512 5517 5518 5516 5514 5519 5522 5517 5515 5500 5496 5492 5498 5523 5519 5510 5492 5483 5476 5491 5494 5483 5495 5516 5515 5518 5499 5483 5470 5465 5460
5444 5447 5454 5460 5465 5466 5471 5477 5483 5485 5482 5492 5502 5506 5500 5499 5498 5497 5499 5498 5494 5488 5486 5484 5487 5482 5503 5511 5507 5487 5484 5469 5459 5468 5461 5468 5488 5488 5489 5459 5456 5444 5440 5437
5422 5429 5431 5438 5444 5449 5452 5456 5459 5464 5470 5481 5486 5489 5491 5488 5488 5478 5479 5484 5481 5481 5470 5466 5466 5477 5475 5483 5487 5480 5484 5486 5478 5471 5464 5462 5449 5445 5436 5427 5426 5422 5419 5416
5398 5406 5412 5415 5421 5427 5430 5433 5435 5439 5449 5462 5464 5469 5473 5472 5473 5473 5465 5461 5466 5466 5465 5457 5454 5454 5456 5458 5465 5477 5480 5475 5457 5453 5454 5437 5427 5415 5410 5407 5405 5403 5398 5393
5379 5383 5388 5394 5398 5402 5408 5410 5414 5415 5419 5435 5453 5449 5450 5452 5453 5453 5455 5452 5448 5446 5444 5440 5437 5441 5443 5434 5445 5442 5447 5447 5446 5446 5439 5416 5405 5400 5395 5391 5385 5379 5377 5374
5359 5362 5368 5373 5377 5382 5387 5391 5393 5397 5400 5408 5417 5424 5432 5434 5435 5434 5436 5434 5430 5426 5425 5424 5424 5423 5419 5423 5422 5429 5419 5423 5422 5421 5397 5394 5389 5376 5377 5371 5365 5358 5352 5351
5340 5345 5349 5355 5358 5361 5366 5375 5375 5378 5379 5384 5390 5403 5408 5412 5416 5418 5417 5416 5413 5411 5411 5410 5409 5412 5403 5404 5414 5398 5394 5389 5385 5378 5372 5367 5360 5357 5351 5344 5340 5335 5332 5327
5320 5326 5332 5337 5341 5344 5343 5350 5357 5359 5359 5362 5368 5382 5394 5392 5396 5395 5392 5393 5395 5393 5390 5389 5387 5388 5386 5381 5373 5367 5367 5366 5361 5354 5349 5344 5338 5333 5324 5320 5318 5316 5312 5309
5305 5310 5315 5320 5326 5329 5329 5335 5338 5339 5339 5344 5347 5354 5362 5365 5371 5373 5373 5372 5372 5370 5373 5375 5378 5376 5372 5367 5347 5350 5347 5341 5335 5328 5323 5314 5308 5307 5308 5306 5302 5300 5298 5295
5287 5295 5300 5303 5308 5310 5313 5316 5318 5319 5318 5323 5326 5329 5331 5343 5345 5346 5347 5348 5342 5346 5353 5349 5349 5349 5335 5332 5326 5324 5317 5312 5307 5303 5301 5299 5294 5296 5295 5292 5290 5283 5285 5281
5280 5283 5283 5281 5289 5291 5296 5299 5301 5298 5298 5305 5308 5310 5316 5316 5316 5316 5317 5319 5324 5313 5327 5327 5322 5319 5306 5303 5301 5300 5295 5290 5284 5284 5288 5290 5286 5282 5281 5279 5275 5269 5268 5268
5264 5262 5263 5271 5278 5279 5278 5276 5286 5287 5286 5288 5287 5290 5292 5295 5300 5300 5300 5292 5288 5278 5303 5298 5291 5290 5286 5286 5285 5281 5277 5278 5278 5276 5274 5271 5268 5267 5266 5269 5265 5262 5259 5256
5252 5252 5254 5258 5255 5248 5253 5242 5270 5274 5270 5267 5267 5272 5277 5281 5280 5275 5268 5267 5262 5265 5270 5260 5266 5268 5263 5265 5263 5265 5269 5269 5268 5265 5262 5259 5258 5254 5252 5253 5252 5249 5247 5244
5244 5237 5225 5223 5222 5218 5214 5230 5234 5240 5250 5245 5249 5249 5252 5258 5262 5243 5252 5248 5237 5247 5235 5246 5249 5250 5254 5259 5262 5260 5257 5254 5253 5251 5249 5248 5247 5246 5241 5241 5237 5235 5234 5232
5217 5205 5208 5197 5190 5220 5234 5227 5225 5239 5238 5235 5227 5227 5244 5250 5239 5241 5243 5231 5223 5194 5190 5237 5241 5246 5251 5251 5249 5245 5242 5241 5240 5240 5240 5238 5235 5236 5235 5231 5229 5226 5225 5225
5203 5198 5199 5185 5218 5222 5221 5226 5229 5230 5225 5226 5219 5215 5217 5207 5215 5225 5208 5195 5196 5221 5238 5235 5230 5235 5234 5234 5234 5230 5229 5228 5224 5223 5221 5223 5222 5222 5225 5222 5219 5216 5216 5216
5204 5203 5195 5202 5201 5205 5208 5201 5209 5218 5219 5217 5214 5187 5180 5187 5190 5192 5178 5176 5178 5203 5205 5215 5211 5215 5219 5220 5222 5221 5218 5217 5216 5216 5216 5217 5214 5213 5214 5215 5211 5210 5208 5206
5209 5207 5211 5209 5204 5205 5206 5206 5212 5215 5213 5196 5197 5183 5190 5189 5169 5178 5174 5183 5203 5209 5213 5210 5212 5210 5212 5210 5207 5207 5208 5208 5205 5205 5206 5205 5204 5202 5201 5201 5203 5203 5202 5202